Flag for Comoros Weather past 2 weeks in Mutsamudu, Comoros

Now
79 °F

Passing clouds.


Feels Like: 82 °F
Forecast: 75 / 77 °F
Wind: 7 mph from East

Location: Dzaoudzi / Pamanzi Mayotte

Current Time: Jul 26, 2014 at 8:57:09 PM

Latest Report: Jul 26, 2014 at 8:30 PM


Visibility: N/A

Pressure: 30.07 "Hg

Humidity: 79%

Dew point: 72 °F

Location of MutsamuduLocation

Historic Weather in Mutsamudu — Graph

°F

Mutsamudu temperature yesterday

Maximum temperature yesterday: 82 °F (at 9:30 AM)
Minimum temperature yesterday: 75 °F (at 12:00 AM)
Average temperature yesterday: 79 °F

Past Weeks' High & Low Weather Summary

 TemperatureHumidityPressure
High84 °F (Jul 19, 12:30 PM)94% (Jul 20, 1:00 AM)30.15 "Hg (Jul 20, 1:00 AM)
Low72 °F (Jul 12, 1:00 AM)54% (Jul 13, 1:30 PM)29.98 "Hg (Jul 15, 4:00 AM)
Average78 °F73%30.05 "Hg
* Reported Jul 11 7:00 PM — Jul 26 7:30 PM, Mutsamudu, Weather by CustomWeather, © 2014

Note: Actual official high and low records may vary slightly from our data, if they occured in-between our weather recording intervals... More about our weather records

Advertising

Mutsamudu weather history for previous 24 hours

 ConditionsComfort  
Time TempWeatherWind HumidityBarometerVisibility
7:30 PM
Jul 26
79 °FWarm.7 mph74%30.04 "HgN/A
7:00 PM79 °FWarm.8 mph74%30.04 "HgN/A
6:30 PM79 °FWarm.9 mph74%30.04 "HgN/A
6:00 PM79 °FPassing clouds.8 mph74%30.04 "HgN/A
5:30 PM79 °FScattered clouds.9 mph74%30.04 "HgN/A
5:00 PM81 °FScattered clouds.12 mph70%30.01 "HgN/A
4:30 PM81 °FPassing clouds.12 mph74%30.01 "HgN/A
4:00 PM81 °FPassing clouds.12 mph70%30.01 "HgN/A
3:35 PM82 °FScattered clouds.13 mph70%30.01 "HgN/A
3:00 PM81 °FScattered clouds.14 mph74%30.01 "HgN/A
2:00 PM81 °FPassing clouds.15 mph70%30.01 "HgN/A
1:30 PM82 °FScattered clouds.16 mph70%30.01 "HgN/A
1:00 PM82 °FScattered clouds.16 mph70%30.04 "HgN/A
12:30 PM82 °FScattered clouds.16 mph70%30.04 "HgN/A
12:00 PM81 °FBroken clouds.15 mph74%30.04 "HgN/A
11:30 AM84 °FScattered clouds.20 mph62%30.04 "HgN/A
11:00 AM82 °FBroken clouds.21 mph66%30.07 "HgN/A
10:30 AM82 °FBroken clouds.20 mph70%30.07 "HgN/A
10:00 AM81 °FBroken clouds.20 mph74%30.07 "HgN/A
9:30 AM79 °FBroken clouds.18 mph84%30.07 "HgN/A
9:04 AM75 °FBroken clouds.5 mph89%30.07 "HgN/A
9:00 AM75 °FBroken clouds.5 mph89%30.07 "HgN/A
8:30 AM73 °FScattered showers. Broken clouds.8 mph89%30.07 "Hg5 mi
8:00 AM77 °FScattered clouds.2 mph83%30.04 "HgN/A
7:30 AM75 °FScattered clouds.2 mph89%30.04 "HgN/A
7:00 AM75 °FScattered clouds.3 mph89%30.01 "HgN/A
6:30 AM75 °FBroken clouds.7 mph89%30.01 "HgN/A
6:00 AM73 °FPartly cloudy.6 mph94%30.01 "HgN/A
5:30 AM73 °FPartly cloudy.12 mph94%30.01 "Hg4 mi
5:00 AM73 °FPartly cloudy.13 mph89%29.98 "Hg4 mi
4:30 AM75 °FPartly cloudy.8 mph78%29.98 "HgN/A
4:00 AM77 °FDrizzle. Mostly cloudy.15 mph79%29.98 "HgN/A
3:30 AM77 °FPartly cloudy.16 mph83%29.98 "HgN/A
3:00 AM77 °FMostly cloudy.14 mph83%29.98 "HgN/A
2:30 AM77 °FPassing clouds.15 mph79%29.98 "HgN/A
2:00 AM77 °FWarm.13 mph79%30.01 "HgN/A
1:30 AM77 °FMostly cloudy.13 mph83%30.01 "HgN/A
1:00 AM77 °FPassing clouds.10 mph83%30.01 "HgN/A
12:30 AM77 °FWarm.7 mph79%30.01 "HgN/A
12:00 AM77 °FWarm.7 mph79%30.04 "HgN/A
11:30 PM
Jul 25
77 °FWarm.7 mph74%30.04 "HgN/A
11:00 PM77 °FWarm.2 mph74%30.04 "HgN/A
10:30 PM77 °FWarm.3 mph74%30.04 "HgN/A
10:00 PM77 °FWarm.6 mph74%30.04 "HgN/A
9:30 PM77 °FWarm.6 mph74%30.04 "HgN/A
9:00 PM75 °FMild.5 mph78%30.01 "HgN/A
8:30 PM77 °FWarm.5 mph74%30.01 "HgN/A
8:00 PM77 °FWarm.5 mph74%30.01 "HgN/A
Weather by CustomWeather, © 2014

See weather overviewHow to use our weather pages